Year,Month,Day,Hour,Minute,Value (Times are PST for temperature in C)
2019,08,06,00,00,17.90
2019,08,06,00,01,17.80
2019,08,06,00,02,17.80
2019,08,06,00,03,17.80
2019,08,06,00,04,17.80
2019,08,06,00,05,17.80
2019,08,06,00,06,17.80
2019,08,06,00,07,17.80
2019,08,06,00,08,17.80
2019,08,06,00,09,17.80
2019,08,06,00,10,17.70
2019,08,06,00,11,17.70
2019,08,06,00,12,17.70
2019,08,06,00,13,17.70
2019,08,06,00,14,17.70
2019,08,06,00,15,17.70
2019,08,06,00,16,17.70
2019,08,06,00,17,17.70
2019,08,06,00,18,17.70
2019,08,06,00,19,17.60
2019,08,06,00,20,17.60
2019,08,06,00,21,17.60
2019,08,06,00,22,17.60
2019,08,06,00,23,17.60
2019,08,06,00,24,17.60
2019,08,06,00,25,17.60
2019,08,06,00,26,17.60
2019,08,06,00,27,17.60
2019,08,06,00,28,17.60
2019,08,06,00,29,17.60
2019,08,06,00,30,17.50
2019,08,06,00,31,17.50
2019,08,06,00,32,17.50
2019,08,06,00,33,17.50
2019,08,06,00,34,17.50
2019,08,06,00,35,17.50
2019,08,06,00,36,17.50
2019,08,06,00,37,17.40
2019,08,06,00,38,17.40
2019,08,06,00,39,17.40
2019,08,06,00,40,17.40
2019,08,06,00,41,17.40
2019,08,06,00,42,17.40
2019,08,06,00,43,17.40
2019,08,06,00,44,17.40
2019,08,06,00,45,17.40
2019,08,06,00,46,17.40
2019,08,06,00,47,17.40
2019,08,06,00,48,17.40
2019,08,06,00,49,17.40
2019,08,06,00,50,17.40
2019,08,06,00,51,17.30
2019,08,06,00,52,17.30
2019,08,06,00,53,17.30
2019,08,06,00,54,17.30
2019,08,06,00,55,17.30
2019,08,06,00,56,17.30
2019,08,06,00,57,17.20
2019,08,06,00,58,17.20
2019,08,06,00,59,17.20
2019,08,06,01,00,17.20
2019,08,06,01,01,17.20
2019,08,06,01,02,17.20
2019,08,06,01,03,17.20
2019,08,06,01,04,17.20
2019,08,06,01,05,17.20
2019,08,06,01,06,17.10
2019,08,06,01,07,17.10
2019,08,06,01,08,17.10
2019,08,06,01,09,17.10
2019,08,06,01,10,17.10
2019,08,06,01,11,17.10
2019,08,06,01,12,17.00
2019,08,06,01,13,17.00
2019,08,06,01,14,17.00
2019,08,06,01,15,17.00
2019,08,06,01,16,17.00
2019,08,06,01,17,16.90
2019,08,06,01,18,16.90
2019,08,06,01,19,16.90
2019,08,06,01,20,16.90
2019,08,06,01,21,16.90
2019,08,06,01,22,16.80
2019,08,06,01,23,16.80
2019,08,06,01,24,16.80
2019,08,06,01,25,16.80
2019,08,06,01,26,16.80
2019,08,06,01,27,16.70
2019,08,06,01,28,16.70
2019,08,06,01,29,16.70
2019,08,06,01,30,16.70
2019,08,06,01,31,16.70
2019,08,06,01,32,16.70
2019,08,06,01,33,16.70
2019,08,06,01,34,16.70
2019,08,06,01,35,16.60
2019,08,06,01,36,16.60
2019,08,06,01,37,16.60
2019,08,06,01,38,16.60
2019,08,06,01,39,16.60
2019,08,06,01,40,16.60
2019,08,06,01,41,16.50
2019,08,06,01,42,16.50
2019,08,06,01,43,16.50
2019,08,06,01,44,16.50
2019,08,06,01,45,16.50
2019,08,06,01,46,16.40
2019,08,06,01,47,16.40
2019,08,06,01,48,16.40
2019,08,06,01,49,16.40
2019,08,06,01,50,16.40
2019,08,06,01,51,16.40
2019,08,06,01,52,16.40
2019,08,06,01,53,16.30
2019,08,06,01,54,16.30
2019,08,06,01,55,16.30
2019,08,06,01,56,16.30
2019,08,06,01,57,16.30
2019,08,06,01,58,16.30
2019,08,06,01,59,16.30
2019,08,06,02,00,16.30
2019,08,06,02,01,16.20
2019,08,06,02,02,16.20
2019,08,06,02,03,16.20
2019,08,06,02,04,16.20
2019,08,06,02,05,16.20
2019,08,06,02,06,16.20
2019,08,06,02,07,16.20
2019,08,06,02,08,16.20
2019,08,06,02,09,16.10
2019,08,06,02,10,16.10
2019,08,06,02,11,16.10
2019,08,06,02,12,16.10
2019,08,06,02,13,16.10
2019,08,06,02,14,16.10
2019,08,06,02,15,16.10
2019,08,06,02,16,16.00
2019,08,06,02,17,16.00
2019,08,06,02,18,16.00
2019,08,06,02,19,16.00
2019,08,06,02,20,15.90
2019,08,06,02,21,15.90
2019,08,06,02,22,15.90
2019,08,06,02,23,15.80
2019,08,06,02,24,15.80
2019,08,06,02,25,15.80
2019,08,06,02,26,15.80
2019,08,06,02,27,15.80
2019,08,06,02,28,15.70
2019,08,06,02,29,15.70
2019,08,06,02,30,15.70
2019,08,06,02,31,15.70
2019,08,06,02,32,15.60
2019,08,06,02,33,15.60
2019,08,06,02,34,15.60
2019,08,06,02,35,15.60
2019,08,06,02,36,15.60
2019,08,06,02,37,15.60
2019,08,06,02,38,15.60
2019,08,06,02,39,15.60
2019,08,06,02,40,15.50
2019,08,06,02,41,15.50
2019,08,06,02,42,15.50
2019,08,06,02,43,15.50
2019,08,06,02,44,15.50
2019,08,06,02,45,15.50
2019,08,06,02,46,15.50
2019,08,06,02,47,15.50
2019,08,06,02,48,15.50
2019,08,06,02,49,15.50
2019,08,06,02,50,15.50
2019,08,06,02,51,15.40
2019,08,06,02,52,15.40
2019,08,06,02,53,15.40
2019,08,06,02,54,15.40
2019,08,06,02,55,15.30
2019,08,06,02,56,15.30
2019,08,06,02,57,15.30
2019,08,06,02,58,15.30
2019,08,06,02,59,15.30
2019,08,06,03,00,15.30
2019,08,06,03,01,15.20
2019,08,06,03,02,15.20
2019,08,06,03,03,15.20
2019,08,06,03,04,15.20
2019,08,06,03,05,15.20
2019,08,06,03,06,15.20
2019,08,06,03,07,15.20
2019,08,06,03,08,15.10
2019,08,06,03,09,15.10
2019,08,06,03,10,15.10
2019,08,06,03,11,15.10
2019,08,06,03,12,15.10
2019,08,06,03,13,15.10
2019,08,06,03,14,15.10
2019,08,06,03,15,15.10
2019,08,06,03,16,15.00
2019,08,06,03,17,15.00
2019,08,06,03,18,15.00
2019,08,06,03,19,15.00
2019,08,06,03,20,15.00
2019,08,06,03,21,15.00
2019,08,06,03,22,15.00
2019,08,06,03,23,15.00
2019,08,06,03,24,14.90
2019,08,06,03,25,14.90
2019,08,06,03,26,14.90
2019,08,06,03,27,14.90
2019,08,06,03,28,14.90
2019,08,06,03,29,15.00
2019,08,06,03,30,15.00
2019,08,06,03,31,15.00
2019,08,06,03,32,15.00
2019,08,06,03,33,15.00
2019,08,06,03,34,15.00
2019,08,06,03,35,15.00
2019,08,06,03,36,15.00
2019,08,06,03,37,15.10
2019,08,06,03,38,15.10
2019,08,06,03,39,15.10
2019,08,06,03,40,15.10
2019,08,06,03,41,15.10
2019,08,06,03,42,15.00
2019,08,06,03,43,15.00
2019,08,06,03,44,15.00
2019,08,06,03,45,15.00
2019,08,06,03,46,14.90
2019,08,06,03,47,14.90
2019,08,06,03,48,14.90
2019,08,06,03,49,14.90
2019,08,06,03,50,14.90
2019,08,06,03,51,14.90
2019,08,06,03,52,14.90
2019,08,06,03,53,14.90
2019,08,06,03,54,14.90
2019,08,06,03,55,14.80
2019,08,06,03,56,14.80
2019,08,06,03,57,14.80
2019,08,06,03,58,14.80
2019,08,06,03,59,14.80
2019,08,06,04,00,14.80
2019,08,06,04,01,14.80
2019,08,06,04,02,14.70
2019,08,06,04,03,14.70
2019,08,06,04,04,14.70
2019,08,06,04,05,14.70
2019,08,06,04,06,14.70
2019,08,06,04,07,14.70
2019,08,06,04,08,14.60
2019,08,06,04,09,14.60
2019,08,06,04,10,14.60
2019,08,06,04,11,14.60
2019,08,06,04,12,14.50
2019,08,06,04,13,14.50
2019,08,06,04,14,14.50
2019,08,06,04,15,14.40
2019,08,06,04,16,14.40
2019,08,06,04,17,14.40
2019,08,06,04,18,14.40
2019,08,06,04,19,14.40
2019,08,06,04,20,14.40
2019,08,06,04,21,14.30
2019,08,06,04,22,14.30
2019,08,06,04,23,14.30
2019,08,06,04,24,14.30
2019,08,06,04,25,14.30
2019,08,06,04,26,14.20
2019,08,06,04,27,14.20
2019,08,06,04,28,14.20
2019,08,06,04,29,14.20
2019,08,06,04,30,14.10
2019,08,06,04,31,14.10
2019,08,06,04,32,14.10
2019,08,06,04,33,14.10
2019,08,06,04,34,14.00
2019,08,06,04,35,14.00
2019,08,06,04,36,13.90
2019,08,06,04,37,13.90
2019,08,06,04,38,13.90
2019,08,06,04,39,13.90
2019,08,06,04,40,13.90
2019,08,06,04,41,13.80
2019,08,06,04,42,13.80
2019,08,06,04,43,13.80
2019,08,06,04,44,13.80
2019,08,06,04,45,13.70
2019,08,06,04,46,13.70
2019,08,06,04,47,13.70
2019,08,06,04,48,13.70
2019,08,06,04,49,13.60
2019,08,06,04,50,13.60
2019,08,06,04,51,13.60
2019,08,06,04,52,13.50
2019,08,06,04,53,13.50
2019,08,06,04,54,13.40
2019,08,06,04,55,13.40
2019,08,06,04,56,13.40
2019,08,06,04,57,13.30
2019,08,06,04,58,13.30
2019,08,06,04,59,13.30
2019,08,06,05,00,13.20
2019,08,06,05,01,13.20
2019,08,06,05,02,13.20
2019,08,06,05,03,13.20
2019,08,06,05,04,13.20
2019,08,06,05,05,13.20
2019,08,06,05,06,13.20
2019,08,06,05,07,13.10
2019,08,06,05,08,13.10
2019,08,06,05,09,13.10
2019,08,06,05,10,13.10
2019,08,06,05,11,13.10
2019,08,06,05,12,13.00
2019,08,06,05,13,13.00
2019,08,06,05,14,13.00
2019,08,06,05,15,13.00
2019,08,06,05,16,12.90
2019,08,06,05,17,12.90
2019,08,06,05,18,12.90
2019,08,06,05,19,12.90
2019,08,06,05,20,12.90
2019,08,06,05,21,12.80
2019,08,06,05,22,12.80
2019,08,06,05,23,12.80
2019,08,06,05,24,12.80
2019,08,06,05,25,12.80
2019,08,06,05,26,12.80
2019,08,06,05,27,12.80
2019,08,06,05,28,12.80
2019,08,06,05,29,12.80
2019,08,06,05,30,12.80
2019,08,06,05,31,12.70
2019,08,06,05,32,12.70
2019,08,06,05,33,12.70
2019,08,06,05,34,12.70
2019,08,06,05,35,12.80
2019,08,06,05,36,12.80
2019,08,06,05,37,12.80
2019,08,06,05,38,12.80
2019,08,06,05,39,12.80
2019,08,06,05,40,12.80
2019,08,06,05,41,12.70
2019,08,06,05,42,12.70
2019,08,06,05,43,12.70
2019,08,06,05,44,12.70
2019,08,06,05,45,12.80
2019,08,06,05,46,12.80
2019,08,06,05,47,12.80
2019,08,06,05,48,12.80
2019,08,06,05,49,12.70
2019,08,06,05,50,12.80
2019,08,06,05,51,12.70
2019,08,06,05,52,12.70
2019,08,06,05,53,12.70
2019,08,06,05,54,12.70
2019,08,06,05,55,12.70
2019,08,06,05,56,12.80
2019,08,06,05,57,12.80
2019,08,06,05,58,12.80
2019,08,06,05,59,12.80
2019,08,06,06,00,12.80
2019,08,06,06,01,12.80
2019,08,06,06,02,12.80
2019,08,06,06,03,12.80
2019,08,06,06,04,12.80
2019,08,06,06,05,12.80
2019,08,06,06,06,12.80
2019,08,06,06,07,12.80
2019,08,06,06,08,12.80
2019,08,06,06,09,12.80
2019,08,06,06,10,12.80
2019,08,06,06,11,12.80
2019,08,06,06,12,12.80
2019,08,06,06,13,12.80
2019,08,06,06,14,12.80
2019,08,06,06,15,12.80
2019,08,06,06,16,12.80
2019,08,06,06,17,12.80
2019,08,06,06,18,12.80
2019,08,06,06,19,12.80
2019,08,06,06,20,12.80
2019,08,06,06,21,12.80
2019,08,06,06,22,12.80
2019,08,06,06,23,12.80
2019,08,06,06,24,12.90
2019,08,06,06,25,12.90
2019,08,06,06,26,12.90
2019,08,06,06,27,12.90
2019,08,06,06,28,12.80
2019,08,06,06,29,12.90
2019,08,06,06,30,12.90
2019,08,06,06,31,12.90
2019,08,06,06,32,12.90
2019,08,06,06,33,12.90
2019,08,06,06,34,12.90
2019,08,06,06,35,12.80
2019,08,06,06,36,12.80
2019,08,06,06,37,12.80
2019,08,06,06,38,12.80
2019,08,06,06,39,12.80
2019,08,06,06,40,12.80
2019,08,06,06,41,12.80
2019,08,06,06,42,12.80
2019,08,06,06,43,12.80
2019,08,06,06,44,12.80
2019,08,06,06,45,12.80
2019,08,06,06,46,12.90
2019,08,06,06,47,12.90
2019,08,06,06,48,12.90
2019,08,06,06,49,12.80
2019,08,06,06,50,12.80
2019,08,06,06,51,12.80
2019,08,06,06,52,12.80
2019,08,06,06,53,12.80
2019,08,06,06,54,12.80
2019,08,06,06,55,12.80
2019,08,06,06,56,12.80
2019,08,06,06,57,12.80
2019,08,06,06,58,12.80
2019,08,06,06,59,12.80
2019,08,06,07,00,12.80
2019,08,06,07,01,12.70
2019,08,06,07,02,12.70
2019,08,06,07,03,12.70
2019,08,06,07,04,12.70
2019,08,06,07,05,12.70
2019,08,06,07,06,12.70
2019,08,06,07,07,12.70
2019,08,06,07,08,12.70
2019,08,06,07,09,12.70
2019,08,06,07,10,12.70
2019,08,06,07,11,12.70
2019,08,06,07,12,12.70
2019,08,06,07,13,12.70
2019,08,06,07,14,12.80
2019,08,06,07,15,12.80
2019,08,06,07,16,12.80
2019,08,06,07,17,12.80
2019,08,06,07,18,12.80
2019,08,06,07,19,12.80
2019,08,06,07,20,12.90
2019,08,06,07,21,12.90
2019,08,06,07,22,12.90
2019,08,06,07,23,12.90
2019,08,06,07,24,13.00
2019,08,06,07,25,13.00
2019,08,06,07,26,13.00
2019,08,06,07,27,13.00
2019,08,06,07,28,13.10
2019,08,06,07,29,13.10
2019,08,06,07,30,13.10
2019,08,06,07,31,13.10
2019,08,06,07,32,13.20
2019,08,06,07,33,13.20
2019,08,06,07,34,13.20
2019,08,06,07,35,13.30
2019,08,06,07,36,13.30
2019,08,06,07,37,13.40
2019,08,06,07,38,13.40
2019,08,06,07,39,13.40
2019,08,06,07,40,13.50
2019,08,06,07,41,13.50
2019,08,06,07,42,13.50
2019,08,06,07,43,13.50
2019,08,06,07,44,13.60
2019,08,06,07,45,13.60
2019,08,06,07,46,13.60
2019,08,06,07,47,13.60
2019,08,06,07,48,13.60
2019,08,06,07,49,13.60
2019,08,06,07,50,13.60
2019,08,06,07,51,13.60
2019,08,06,07,52,13.60
2019,08,06,07,53,13.60
2019,08,06,07,54,13.60
2019,08,06,07,55,13.70
2019,08,06,07,56,13.70
2019,08,06,07,57,13.70
2019,08,06,07,58,13.70
2019,08,06,07,59,13.70
2019,08,06,08,00,13.70
2019,08,06,08,01,13.70
2019,08,06,08,02,13.70
2019,08,06,08,03,13.80
2019,08,06,08,04,13.80
2019,08,06,08,05,13.80
2019,08,06,08,06,13.80
2019,08,06,08,07,13.80
2019,08,06,08,08,13.80
2019,08,06,08,09,13.90
2019,08,06,08,10,13.90
2019,08,06,08,11,14.00
2019,08,06,08,12,14.10
2019,08,06,08,13,14.10
2019,08,06,08,14,14.10
2019,08,06,08,15,14.10
2019,08,06,08,16,14.20
2019,08,06,08,17,14.20
2019,08,06,08,18,14.20
2019,08,06,08,19,14.20
2019,08,06,08,20,14.30
2019,08,06,08,21,14.40
2019,08,06,08,22,14.50
2019,08,06,08,23,14.60
2019,08,06,08,24,14.70
2019,08,06,08,25,14.80
2019,08,06,08,26,14.80
2019,08,06,08,27,14.90
2019,08,06,08,28,14.90
2019,08,06,08,29,15.00
2019,08,06,08,30,15.00
2019,08,06,08,31,15.10
2019,08,06,08,32,15.10
2019,08,06,08,33,15.20
2019,08,06,08,34,15.20
2019,08,06,08,35,15.20
2019,08,06,08,36,15.20
2019,08,06,08,37,15.20
2019,08,06,08,38,15.30
2019,08,06,08,39,15.30
2019,08,06,08,40,15.30
2019,08,06,08,41,15.30
2019,08,06,08,42,15.40
2019,08,06,08,43,15.40
2019,08,06,08,44,15.40
2019,08,06,08,45,15.40
2019,08,06,08,46,15.50
2019,08,06,08,47,15.50
2019,08,06,08,48,15.60
2019,08,06,08,49,15.70
2019,08,06,08,50,15.80
2019,08,06,08,51,15.90
2019,08,06,08,52,16.00
2019,08,06,08,53,16.00
2019,08,06,08,54,16.10
2019,08,06,08,55,16.10
2019,08,06,08,56,16.10
2019,08,06,08,57,16.10
2019,08,06,08,58,16.20
2019,08,06,08,59,16.20
2019,08,06,09,00,16.20
2019,08,06,09,01,16.20
2019,08,06,09,02,16.30
2019,08,06,09,03,16.20
2019,08,06,09,04,16.20
2019,08,06,09,05,16.20
2019,08,06,09,06,16.20
2019,08,06,09,07,16.20
2019,08,06,09,08,16.10
2019,08,06,09,09,16.20
2019,08,06,09,10,16.20
2019,08,06,09,11,16.30
2019,08,06,09,12,16.30
2019,08,06,09,13,16.30
2019,08,06,09,14,16.30
2019,08,06,09,15,16.30
2019,08,06,09,16,16.40
2019,08,06,09,17,16.40
2019,08,06,09,18,16.40
2019,08,06,09,19,16.40
2019,08,06,09,20,16.30
2019,08,06,09,21,16.30
2019,08,06,09,22,16.20
2019,08,06,09,23,16.30
2019,08,06,09,24,16.30
2019,08,06,09,25,16.30
2019,08,06,09,26,16.30
2019,08,06,09,27,16.40
2019,08,06,09,28,16.40
2019,08,06,09,29,16.50
2019,08,06,09,30,16.60
2019,08,06,09,31,16.70
2019,08,06,09,32,16.80
2019,08,06,09,33,16.70
2019,08,06,09,34,16.70
2019,08,06,09,35,16.70
2019,08,06,09,36,16.70
2019,08,06,09,37,16.60
2019,08,06,09,38,16.60
2019,08,06,09,39,16.50
2019,08,06,09,40,16.50
2019,08,06,09,41,16.40
2019,08,06,09,42,16.30
2019,08,06,09,43,16.20
2019,08,06,09,44,16.20
2019,08,06,09,45,16.20
2019,08,06,09,46,16.20
2019,08,06,09,47,16.30
2019,08,06,09,48,16.30
2019,08,06,09,49,16.30
2019,08,06,09,50,16.40
2019,08,06,09,51,16.50
2019,08,06,09,52,16.60
2019,08,06,09,53,16.70
2019,08,06,09,54,16.80
2019,08,06,09,55,16.80
2019,08,06,09,56,16.80
2019,08,06,09,57,16.90
2019,08,06,09,58,16.80
2019,08,06,09,59,16.80
2019,08,06,10,00,16.70
2019,08,06,10,01,16.70
2019,08,06,10,02,16.60
2019,08,06,10,03,16.60
2019,08,06,10,04,16.70
2019,08,06,10,05,16.70
2019,08,06,10,06,16.70
2019,08,06,10,07,16.70
2019,08,06,10,08,16.60
2019,08,06,10,09,16.60
2019,08,06,10,10,16.60
2019,08,06,10,11,16.60
2019,08,06,10,12,16.60
2019,08,06,10,13,16.50
2019,08,06,10,14,16.50
2019,08,06,10,15,16.60
2019,08,06,10,16,16.70
2019,08,06,10,17,16.80
2019,08,06,10,18,16.80
2019,08,06,10,19,16.90
2019,08,06,10,20,16.90
2019,08,06,10,21,16.90
2019,08,06,10,22,16.90
2019,08,06,10,23,17.00
2019,08,06,10,24,17.00
2019,08,06,10,25,17.00
2019,08,06,10,26,17.10
2019,08,06,10,27,17.10
2019,08,06,10,28,17.10
2019,08,06,10,29,17.10
2019,08,06,10,30,17.10
2019,08,06,10,31,17.20
2019,08,06,10,32,17.10
2019,08,06,10,33,17.10
2019,08,06,10,34,17.20
2019,08,06,10,35,17.20
2019,08,06,10,36,17.30
2019,08,06,10,37,17.30
2019,08,06,10,38,17.30
2019,08,06,10,39,17.40
2019,08,06,10,40,17.40
2019,08,06,10,41,17.40
2019,08,06,10,42,17.50
2019,08,06,10,43,17.60
2019,08,06,10,44,17.70
2019,08,06,10,45,17.80
2019,08,06,10,46,17.90
2019,08,06,10,47,17.90
2019,08,06,10,48,18.00
2019,08,06,10,49,18.10
2019,08,06,10,50,18.10
2019,08,06,10,51,18.20
2019,08,06,10,52,18.30
2019,08,06,10,53,18.40
2019,08,06,10,54,18.50
2019,08,06,10,55,18.60
2019,08,06,10,56,18.70
2019,08,06,10,57,18.80
2019,08,06,10,58,18.80
2019,08,06,10,59,18.90
2019,08,06,11,00,19.00
2019,08,06,11,01,19.10
2019,08,06,11,02,19.10
2019,08,06,11,03,19.10
2019,08,06,11,04,19.20
2019,08,06,11,05,19.30
2019,08,06,11,06,19.30
2019,08,06,11,07,19.40
2019,08,06,11,08,19.50
2019,08,06,11,09,19.60
2019,08,06,11,10,19.60
2019,08,06,11,11,19.70
2019,08,06,11,12,19.80
2019,08,06,11,13,19.90
2019,08,06,11,14,19.90
2019,08,06,11,15,19.90
2019,08,06,11,16,20.00
2019,08,06,11,17,20.10
2019,08,06,11,18,20.20
2019,08,06,11,19,20.20
2019,08,06,11,20,20.10
2019,08,06,11,21,20.10
2019,08,06,11,22,20.10
2019,08,06,11,23,20.10
2019,08,06,11,24,20.00
2019,08,06,11,25,20.00
2019,08,06,11,26,20.10
2019,08,06,11,27,20.20
2019,08,06,11,28,20.30
2019,08,06,11,29,20.40
2019,08,06,11,30,20.50
2019,08,06,11,31,20.60
2019,08,06,11,32,20.60
2019,08,06,11,33,20.60
2019,08,06,11,34,20.60
2019,08,06,11,35,20.70
2019,08,06,11,36,20.80
2019,08,06,11,37,20.80
2019,08,06,11,38,20.90
2019,08,06,11,39,21.10
2019,08,06,11,40,21.10
2019,08,06,11,41,21.20
2019,08,06,11,42,21.20
2019,08,06,11,43,21.30
2019,08,06,11,44,21.40
2019,08,06,11,45,21.50
2019,08,06,11,46,21.50
2019,08,06,11,47,21.60
2019,08,06,11,48,21.70
2019,08,06,11,49,21.80
2019,08,06,11,50,22.00
2019,08,06,11,51,22.10
2019,08,06,11,52,22.20
2019,08,06,11,53,22.40
2019,08,06,11,54,22.50
2019,08,06,11,55,22.60
2019,08,06,11,56,22.70
2019,08,06,11,57,22.70
2019,08,06,11,58,22.80
2019,08,06,11,59,22.80
2019,08,06,12,00,22.80
2019,08,06,12,01,22.90
2019,08,06,12,02,23.10
2019,08,06,12,03,23.20
2019,08,06,12,04,23.40
2019,08,06,12,05,23.50
2019,08,06,12,06,23.60
2019,08,06,12,07,23.70
2019,08,06,12,08,23.80
2019,08,06,12,09,24.00
2019,08,06,12,10,24.10
2019,08,06,12,11,24.10
2019,08,06,12,12,24.00
2019,08,06,12,13,23.80
2019,08,06,12,14,23.80
2019,08,06,12,15,23.70
2019,08,06,12,16,23.60
2019,08,06,12,17,23.40
2019,08,06,12,18,23.30
2019,08,06,12,19,23.00
2019,08,06,12,20,22.70
2019,08,06,12,21,22.50
2019,08,06,12,22,22.40
2019,08,06,12,23,22.30
2019,08,06,12,24,22.40
2019,08,06,12,25,22.40
2019,08,06,12,26,22.40
2019,08,06,12,27,22.50
2019,08,06,12,28,22.60
2019,08,06,12,29,22.60
2019,08,06,12,30,22.70
2019,08,06,12,31,22.70
2019,08,06,12,32,22.60
2019,08,06,12,33,22.60
2019,08,06,12,34,22.60
2019,08,06,12,35,22.70
2019,08,06,12,36,22.80
2019,08,06,12,37,22.80
2019,08,06,12,38,22.90
2019,08,06,12,39,22.90
2019,08,06,12,40,22.90
2019,08,06,12,41,23.00
2019,08,06,12,42,23.00
2019,08,06,12,43,23.00
2019,08,06,12,44,22.90
2019,08,06,12,45,22.90
2019,08,06,12,46,22.80
2019,08,06,12,47,22.80
2019,08,06,12,48,22.80
2019,08,06,12,49,22.80
2019,08,06,12,50,22.70
2019,08,06,12,51,22.70
2019,08,06,12,52,22.70
2019,08,06,12,53,22.70
2019,08,06,12,54,22.80
2019,08,06,12,55,23.00
2019,08,06,12,56,23.20
2019,08,06,12,57,23.30
2019,08,06,12,58,23.50
2019,08,06,12,59,23.60
2019,08,06,13,00,23.80
2019,08,06,13,01,23.80
2019,08,06,13,02,23.80
2019,08,06,13,03,23.80
2019,08,06,13,04,23.80
2019,08,06,13,05,23.90
2019,08,06,13,06,24.00
2019,08,06,13,07,23.90
2019,08,06,13,08,23.80
2019,08,06,13,09,23.70
2019,08,06,13,10,23.60
2019,08,06,13,11,23.50
2019,08,06,13,12,23.50
2019,08,06,13,13,23.40
2019,08,06,13,14,23.40
2019,08,06,13,15,23.30
2019,08,06,13,16,23.30
2019,08,06,13,17,23.30
2019,08,06,13,18,23.30
2019,08,06,13,19,23.40
2019,08,06,13,20,23.50
2019,08,06,13,21,23.50
2019,08,06,13,22,23.50
2019,08,06,13,23,23.50
2019,08,06,13,24,23.60
2019,08,06,13,25,23.70
2019,08,06,13,26,23.80
2019,08,06,13,27,23.90
2019,08,06,13,28,23.90
2019,08,06,13,29,24.00
2019,08,06,13,30,24.00
2019,08,06,13,31,24.10
2019,08,06,13,32,24.10
2019,08,06,13,33,24.10
2019,08,06,13,34,24.10
2019,08,06,13,35,24.10
2019,08,06,13,36,24.10
2019,08,06,13,37,24.20
2019,08,06,13,38,24.20
2019,08,06,13,39,24.30
2019,08,06,13,40,24.30
2019,08,06,13,41,24.40
2019,08,06,13,42,24.50
2019,08,06,13,43,24.50
2019,08,06,13,44,24.50
2019,08,06,13,45,24.60
2019,08,06,13,46,24.60
2019,08,06,13,47,24.60
2019,08,06,13,48,24.50
2019,08,06,13,49,24.40
2019,08,06,13,50,24.40
2019,08,06,13,51,24.30
2019,08,06,13,52,24.10
2019,08,06,13,53,24.10
2019,08,06,13,54,24.10
2019,08,06,13,55,24.20
2019,08,06,13,56,24.20
2019,08,06,13,57,24.20
2019,08,06,13,58,24.20
2019,08,06,13,59,24.30
2019,08,06,14,00,24.40
2019,08,06,14,01,24.40
2019,08,06,14,02,24.40
2019,08,06,14,03,24.40
2019,08,06,14,04,24.40
2019,08,06,14,05,24.40
2019,08,06,14,06,24.30
2019,08,06,14,07,24.30
2019,08,06,14,08,24.20
2019,08,06,14,09,24.20
2019,08,06,14,10,24.20
2019,08,06,14,11,24.10
2019,08,06,14,12,24.00
2019,08,06,14,13,24.00
2019,08,06,14,14,24.10
2019,08,06,14,15,24.10
2019,08,06,14,16,24.20
2019,08,06,14,17,24.20
2019,08,06,14,18,24.20
2019,08,06,14,19,24.20
2019,08,06,14,20,24.30
2019,08,06,14,21,24.30
2019,08,06,14,22,24.40
2019,08,06,14,23,24.50
2019,08,06,14,24,24.60
2019,08,06,14,25,24.70
2019,08,06,14,26,24.80
2019,08,06,14,27,24.90
2019,08,06,14,28,24.90
2019,08,06,14,29,25.00
2019,08,06,14,30,25.00
2019,08,06,14,31,24.90
2019,08,06,14,32,24.90
2019,08,06,14,33,24.80
2019,08,06,14,34,24.90
2019,08,06,14,35,24.90
2019,08,06,14,36,24.80
2019,08,06,14,37,24.70
2019,08,06,14,38,24.50
2019,08,06,14,39,24.30
2019,08,06,14,40,24.20
2019,08,06,14,41,24.10
2019,08,06,14,42,24.10
2019,08,06,14,43,24.20
2019,08,06,14,44,24.20
2019,08,06,14,45,24.20
2019,08,06,14,46,24.20
2019,08,06,14,47,24.20
2019,08,06,14,48,24.30
2019,08,06,14,49,24.40
2019,08,06,14,50,24.50
2019,08,06,14,51,24.60
2019,08,06,14,52,24.70
2019,08,06,14,53,24.60
2019,08,06,14,54,24.70
2019,08,06,14,55,24.70
2019,08,06,14,56,24.70
2019,08,06,14,57,24.80
2019,08,06,14,58,24.80
2019,08,06,14,59,24.70
2019,08,06,15,00,24.60
2019,08,06,15,01,24.60
2019,08,06,15,02,24.50
2019,08,06,15,03,24.50
2019,08,06,15,04,24.60
2019,08,06,15,05,24.70
2019,08,06,15,06,24.80
2019,08,06,15,07,24.90
2019,08,06,15,08,25.00
2019,08,06,15,09,25.00
2019,08,06,15,10,25.10
2019,08,06,15,11,25.10
2019,08,06,15,12,25.10
2019,08,06,15,13,25.20
2019,08,06,15,14,25.10
2019,08,06,15,15,25.10
2019,08,06,15,16,25.00
2019,08,06,15,17,25.00
2019,08,06,15,18,24.90
2019,08,06,15,19,24.90
2019,08,06,15,20,24.90
2019,08,06,15,21,24.90
2019,08,06,15,22,24.90
2019,08,06,15,23,24.80
2019,08,06,15,24,24.80
2019,08,06,15,25,24.80
2019,08,06,15,26,24.80
2019,08,06,15,27,24.80
2019,08,06,15,28,24.90
2019,08,06,15,29,25.00
2019,08,06,15,30,25.10
2019,08,06,15,31,25.20
2019,08,06,15,32,25.20
2019,08,06,15,33,25.30
2019,08,06,15,34,25.30
2019,08,06,15,35,25.30
2019,08,06,15,36,25.30
2019,08,06,15,37,25.30
2019,08,06,15,38,25.30
2019,08,06,15,39,25.30
2019,08,06,15,40,25.20
2019,08,06,15,41,25.20
2019,08,06,15,42,25.20
2019,08,06,15,43,25.30
2019,08,06,15,44,25.40
2019,08,06,15,45,25.40
2019,08,06,15,46,25.40
2019,08,06,15,47,25.30
2019,08,06,15,48,25.30
2019,08,06,15,49,25.20
2019,08,06,15,50,25.20
2019,08,06,15,51,25.30
2019,08,06,15,52,25.40
2019,08,06,15,53,25.40
2019,08,06,15,54,25.50
2019,08,06,15,55,25.50
2019,08,06,15,56,25.50
2019,08,06,15,57,25.50
2019,08,06,15,58,25.40
2019,08,06,15,59,25.30
2019,08,06,16,00,25.20
2019,08,06,16,01,25.10
2019,08,06,16,02,25.00
2019,08,06,16,03,24.90
2019,08,06,16,04,24.90
2019,08,06,16,05,24.80
2019,08,06,16,06,24.80
2019,08,06,16,07,24.80
2019,08,06,16,08,24.70
2019,08,06,16,09,24.70
2019,08,06,16,10,24.60
2019,08,06,16,11,24.60
2019,08,06,16,12,24.50
2019,08,06,16,13,24.40
2019,08,06,16,14,24.40
2019,08,06,16,15,24.40
2019,08,06,16,16,24.40
2019,08,06,16,17,24.40
2019,08,06,16,18,24.40
2019,08,06,16,19,24.40
2019,08,06,16,20,24.40
2019,08,06,16,21,24.40
2019,08,06,16,22,24.40
2019,08,06,16,23,24.40
2019,08,06,16,24,24.50
2019,08,06,16,25,24.50
2019,08,06,16,26,24.60
2019,08,06,16,27,24.70
2019,08,06,16,28,24.70
2019,08,06,16,29,24.80
2019,08,06,16,30,24.90
2019,08,06,16,31,25.00
2019,08,06,16,32,25.10
2019,08,06,16,33,25.10
2019,08,06,16,34,25.20
2019,08,06,16,35,25.20
2019,08,06,16,36,25.30
2019,08,06,16,37,25.30
2019,08,06,16,38,25.30
2019,08,06,16,39,25.40
2019,08,06,16,40,25.50
2019,08,06,16,41,25.60
2019,08,06,16,42,25.60
2019,08,06,16,43,25.70
2019,08,06,16,44,25.90
2019,08,06,16,45,25.90
2019,08,06,16,46,26.00
2019,08,06,16,47,26.10
2019,08,06,16,48,26.20
2019,08,06,16,49,26.30
2019,08,06,16,50,26.30
2019,08,06,16,51,26.20
2019,08,06,16,52,26.10
2019,08,06,16,53,26.00
2019,08,06,16,54,25.90
2019,08,06,16,55,25.90
2019,08,06,16,56,25.90
2019,08,06,16,57,25.90
2019,08,06,16,58,25.90
2019,08,06,16,59,25.80
2019,08,06,17,00,25.80
2019,08,06,17,01,25.80
2019,08,06,17,02,25.80
2019,08,06,17,03,25.70
2019,08,06,17,04,25.60
2019,08,06,17,05,25.50
2019,08,06,17,06,25.40
2019,08,06,17,07,25.40
2019,08,06,17,08,25.30
2019,08,06,17,09,25.30
2019,08,06,17,10,25.40
2019,08,06,17,11,25.40
2019,08,06,17,12,25.40
2019,08,06,17,13,25.40
2019,08,06,17,14,25.40
2019,08,06,17,15,25.40
2019,08,06,17,16,25.50
2019,08,06,17,17,25.50
2019,08,06,17,18,25.60
2019,08,06,17,19,25.70